User: anonymous   Login
Location: Caltech
(34.1382°N, 118.1253°W)
Time: 19:55:24
(UTC-08:00)
Language:

Cosmos 1833 - Orbit

View from above orbital plane
View from above orbital plane
View from above satellite
View from above satellite

Ground track
Ground track

The orbit data is extracted from the following two-line orbital elements,

1 17589U 87027A   16037.76508281  .00000308  00000-0  19079-3 0  9998
2 17589  70.9188 147.9112 0020062 343.1246  16.9205 14.12868429490183
Epoch (UTC): 06 February 2016 18:21:43
Eccentricity: 0.0020062
inclination: 70.9188°
perigee height: 835 km
apogee height: 864 km
right ascension of ascending node: 147.9112°
argument of perigee: 343.1246°
revolutions per day: 14.12868429
mean anomaly at epoch: 16.9205°
orbit number at epoch: 49018

The dashed part of the orbit path shows where the satellite is in the earth's shadow,  

DLR